Hourly Weather Bolshie Pleyki

Today, 15 June, Tuesday

Time Temperature Precipitation Wind Pressure Humidity
00:00 +13°C° 0 mm 1 mps 749 mmHg 84%
01:00 +13°C° 0 mm 1 mps 749 mmHg 84%
02:00 +12°C° 0 mm 1 mps 749 mmHg 85%
03:00 +12°C° 0 mm 1 mps 749 mmHg 84%
04:00 +12°C° 0 mm 2 mps 749 mmHg 83%
05:00 +12°C° 0 mm 2 mps 749 mmHg 82%
06:00 +14°C° 0 mm 2 mps 749 mmHg 76%
07:00 +16°C° 0 mm 3 mps 749 mmHg 70%
08:00 +18°C° 0 mm 3 mps 749 mmHg 65%
09:00 +19°C° 0 mm 3 mps 749 mmHg 63%
10:00 +20°C° 0 mm 4 mps 748 mmHg 62%
11:00 +21°C° 0 mm 4 mps 748 mmHg 61%
12:00 +22°C° 0 mm 4 mps 748 mmHg 60%
13:00 +22°C° 0 mm 4 mps 748 mmHg 59%
14:00 +23°C° 0 mm 4 mps 747 mmHg 59%
15:00 +22°C° 0.4 mm 4 mps 747 mmHg 67%
16:00 +21°C° 0.4 mm 4 mps 747 mmHg 76%
17:00 +20°C° 0.4 mm 4 mps 747 mmHg 85%
18:00 +19°C° 0.1 mm 3 mps 747 mmHg 87%
19:00 +18°C° 0.1 mm 3 mps 747 mmHg 89%
20:00 +18°C° 0.1 mm 2 mps 747 mmHg 91%
21:00 +16°C° 0 mm 2 mps 747 mmHg 91%
22:00 +14°C° 0 mm 3 mps 747 mmHg 92%
23:00 +12°C° 0 mm 3 mps 747 mmHg 93%

Tomorrow, 16 June, Wednesday

Time Temperature Precipitation Wind Pressure Humidity
00:00 +11°C° 0 mm 3 mps 748 mmHg 92%
01:00 +10°C° 0 mm 3 mps 748 mmHg 92%
02:00 +9°C° 0 mm 3 mps 749 mmHg 92%
03:00 +9°C° 0 mm 2 mps 749 mmHg 90%
04:00 +9°C° 0 mm 2 mps 749 mmHg 89%
05:00 +8°C° 0 mm 2 mps 750 mmHg 88%
06:00 +10°C° 0 mm 2 mps 750 mmHg 82%
07:00 +13°C° 0 mm 2 mps 750 mmHg 77%
08:00 +15°C° 0 mm 2 mps 751 mmHg 71%
09:00 +16°C° 0 mm 2 mps 751 mmHg 65%
10:00 +18°C° 0 mm 2 mps 751 mmHg 58%
11:00 +19°C° 0 mm 2 mps 751 mmHg 51%
12:00 +20°C° 0 mm 2 mps 751 mmHg 48%
13:00 +21°C° 0 mm 2 mps 751 mmHg 46%
14:00 +22°C° 0 mm 1 mps 751 mmHg 44%
15:00 +22°C° 0 mm 1 mps 751 mmHg 44%
16:00 +23°C° 0 mm 1 mps 751 mmHg 45%
17:00 +23°C° 0 mm 1 mps 751 mmHg 46%
18:00 +21°C° 0 mm 1 mps 751 mmHg 53%
19:00 +19°C° 0 mm 1 mps 752 mmHg 60%
20:00 +18°C° 0 mm 1 mps 752 mmHg 68%
21:00 +16°C° 0 mm 1 mps 752 mmHg 69%
22:00 +14°C° 0 mm 1 mps 752 mmHg 71%
23:00 +13°C° 0 mm 1 mps 752 mmHg 73%

Day after tomorrow, 17 June, Thursday

Time Temperature Precipitation Wind Pressure Humidity
00:00 +13°C° 0 mm 1 mps 753 mmHg 74%
01:00 +12°C° 0 mm 1 mps 753 mmHg 76%
02:00 +12°C° 0 mm 1 mps 754 mmHg 78%
03:00 +12°C° 0 mm 1 mps 754 mmHg 78%
04:00 +12°C° 0 mm 1 mps 754 mmHg 78%
05:00 +13°C° 0 mm 1 mps 754 mmHg 78%
06:00 +15°C° 0 mm 1 mps 754 mmHg 72%
07:00 +18°C° 0 mm 1 mps 755 mmHg 67%
08:00 +20°C° 0 mm 1 mps 755 mmHg 62%
09:00 +21°C° 0 mm 1 mps 755 mmHg 58%
10:00 +22°C° 0 mm 1 mps 755 mmHg 54%
11:00 +24°C° 0 mm 1 mps 755 mmHg 50%
12:00 +24°C° 0 mm 1 mps 755 mmHg 48%
13:00 +25°C° 0 mm 1 mps 755 mmHg 47%
14:00 +25°C° 0 mm 1 mps 755 mmHg 45%
15:00 +25°C° 0 mm 1 mps 755 mmHg 46%
16:00 +25°C° 0 mm 1 mps 755 mmHg 47%
17:00 +25°C° 0 mm 1 mps 755 mmHg 48%
18:00 +24°C° 0 mm 1 mps 755 mmHg 56%
19:00 +22°C° 0 mm 1 mps 755 mmHg 63%
20:00 +21°C° 0 mm 1 mps 755 mmHg 70%
21:00 +19°C° 0 mm 1 mps 755 mmHg 74%
22:00 +17°C° 0 mm 2 mps 755 mmHg 78%
23:00 +16°C° 0 mm 2 mps 755 mmHg 81%

18 June, Friday

Time Temperature Precipitation Wind Pressure Humidity
00:00 +15°C° 0 mm 2 mps 755 mmHg 84%
01:00 +15°C° 0 mm 2 mps 755 mmHg 87%
02:00 +15°C° 0 mm 2 mps 755 mmHg 90%
03:00 +15°C° 0 mm 2 mps 756 mmHg 89%
04:00 +15°C° 0 mm 2 mps 756 mmHg 89%
05:00 +15°C° 0 mm 2 mps 756 mmHg 88%
06:00 +17°C° 0 mm 2 mps 756 mmHg 82%
07:00 +19°C° 0 mm 3 mps 756 mmHg 75%
08:00 +21°C° 0 mm 3 mps 756 mmHg 69%
09:00 +22°C° 0 mm 3 mps 756 mmHg 65%
10:00 +25°C° 0 mm 3 mps 756 mmHg 60%
11:00 +26°C° 0 mm 3 mps 756 mmHg 56%
12:00 +26°C° 0 mm 3 mps 756 mmHg 54%
13:00 +27°C° 0 mm 3 mps 755 mmHg 52%
14:00 +27°C° 0 mm 3 mps 755 mmHg 50%
15:00 +27°C° 0 mm 3 mps 755 mmHg 53%
16:00 +27°C° 0 mm 3 mps 755 mmHg 56%
17:00 +27°C° 0 mm 3 mps 755 mmHg 59%
18:00 +25°C° 0 mm 3 mps 755 mmHg 66%
19:00 +24°C° 0 mm 2 mps 754 mmHg 72%
20:00 +21°C° 0 mm 2 mps 754 mmHg 79%
21:00 +20°C° 0 mm 2 mps 755 mmHg 81%
22:00 +18°C° 0 mm 2 mps 755 mmHg 84%
23:00 +17°C° 0 mm 2 mps 755 mmHg 86%

19 June, Saturday

Time Temperature Precipitation Wind Pressure Humidity
00:00 +17°C° 0 mm 2 mps 755 mmHg 87%
01:00 +16°C° 0 mm 2 mps 755 mmHg 87%
02:00 +15°C° 0 mm 2 mps 755 mmHg 87%
03:00 +15°C° 0 mm 2 mps 755 mmHg 87%
04:00 +16°C° 0 mm 2 mps 755 mmHg 87%
05:00 +16°C° 0 mm 2 mps 756 mmHg 87%
06:00 +18°C° 0 mm 2 mps 756 mmHg 82%
07:00 +20°C° 0 mm 2 mps 756 mmHg 77%
08:00 +23°C° 0 mm 2 mps 756 mmHg 72%
09:00 +24°C° 0 mm 3 mps 756 mmHg 67%
10:00 +25°C° 0 mm 3 mps 755 mmHg 63%
11:00 +27°C° 0 mm 3 mps 755 mmHg 59%
12:00 +27°C° 0 mm 3 mps 755 mmHg 57%
13:00 +28°C° 0 mm 3 mps 755 mmHg 55%
14:00 +28°C° 0 mm 3 mps 755 mmHg 53%
15:00 +28°C° 0 mm 3 mps 754 mmHg 55%
16:00 +28°C° 0 mm 3 mps 754 mmHg 57%
17:00 +28°C° 0 mm 2 mps 754 mmHg 59%
18:00 +26°C° 0 mm 2 mps 754 mmHg 66%
19:00 +25°C° 0 mm 2 mps 754 mmHg 72%
20:00 +24°C° 0 mm 2 mps 754 mmHg 79%
21:00 +21°C° 0 mm 2 mps 754 mmHg 82%
22:00 +20°C° 0 mm 2 mps 754 mmHg 85%
23:00 +19°C° 0 mm 2 mps 754 mmHg 89%

20 June, Sunday

Time Temperature Precipitation Wind Pressure Humidity
00:00 +18°C° 0 mm 2 mps 754 mmHg 90%
01:00 +18°C° 0 mm 2 mps 754 mmHg 91%
02:00 +17°C° 0 mm 2 mps 754 mmHg 92%
03:00 +17°C° 0 mm 2 mps 754 mmHg 91%
04:00 +17°C° 0 mm 2 mps 754 mmHg 90%
05:00 +18°C° 0 mm 2 mps 754 mmHg 89%
06:00 +19°C° 0 mm 2 mps 754 mmHg 83%
07:00 +21°C° 0 mm 2 mps 754 mmHg 78%
08:00 +24°C° 0 mm 3 mps 754 mmHg 72%
09:00 +25°C° 0 mm 3 mps 754 mmHg 68%
10:00 +26°C° 0 mm 3 mps 754 mmHg 64%
11:00 +27°C° 0 mm 3 mps 754 mmHg 59%
12:00 +28°C° 0 mm 3 mps 754 mmHg 57%
13:00 +28°C° 0 mm 3 mps 753 mmHg 54%
14:00 +28°C° 0 mm 3 mps 753 mmHg 52%
15:00 +28°C° 0 mm 3 mps 753 mmHg 53%
16:00 +28°C° 0 mm 2 mps 753 mmHg 55%
17:00 +28°C° 0 mm 2 mps 752 mmHg 57%
18:00 +27°C° 0 mm 2 mps 752 mmHg 63%
19:00 +25°C° 0 mm 2 mps 752 mmHg 70%
20:00 +24°C° 0 mm 1 mps 752 mmHg 76%
21:00 +23°C° 0 mm 1 mps 752 mmHg 78%
22:00 +20°C° 0 mm 2 mps 752 mmHg 81%
23:00 +19°C° 0 mm 2 mps 753 mmHg 83%
Show more